THOR AGENA D R/B, 815

Orbit data source: Space-Track

THOR AGENA D R/B, 815 is space debris in SSO originally from a launch on Thu, 18 Jun 1964 UTC launched from the Air Force Western Test Range (AFWTR). Debris objects in space refer to the collection of defunct objects orbiting the Earth. Examples of debris include non-operational satellites, rocket bodies, and fragments generated from explosions, collisions, or faulty payload assembly.

Loading next visibility...
Identifier
815, 1964-031C
Orbit
SSO
Last TLE update
13 hours ago
Origin
Manufacturer
LMSC
Mission
Spacecraft
Bus & Motor
AGENA D, Unknown motor
Mass
600 kg wet, 600 kg dry
Launch date (UTC)
1964-06-18 (61 years ago)
Launch vehicle
Unknown
Launch site
Air Force Western Test Range (AFWTR)
Object type
Payload
Rocket body
Debris
Shape & HBR
Cyl + 1 Nozzle, 6.3 m
Radar Cross Section
8.306 m², Large (>1 m²)

Expand to show TLE details & history

TLE from 13 hours ago
0 THOR AGENA D R/B
1 00815U 64031C   25183.72789076  .00000085  00000-0  55653-4 0  9994
2 00815  99.8085  86.1396 0011218 200.3000 159.7733 14.28309272171110
Epoch: 2025-07-02T17:28Z
TLE epoch observation values (Epoch: 2025-07-02T17:28:09.761Z)
Latitude
-0.00001°
Longitude
-96.9059°
Altitude
807.832 km
Speed
7.446 km/s
True Right ascension
05h 44m 33s
True Declination
0° 00' 00"
Sunlit
Object was in daylight at epoch
Visualization orbit readout
Latitude
-79.97645°
Longitude
-19.65594°
Altitude
823.119 km
Speed
7.442 km/s
Apparent Right ascension
07h 05m 53s
Apparent Declination
-63° 50' 52"
Sunlit
Object is in daylight
Visualization observer readout
Local Sidereal Time
18:16:13
Azimuth
192.946° SSW
Elevation
-64.975°
Doppler factor
1
Orbital elements
Apogee altitude
802.638 km
Perigee altitude
786.545 km
Semi-major axis
7,172.728 km
Eccentricity
0.00112
Inclination
99.8085°
RAAN
86.1396°
Arg. of periapsis
200.3°
True anomaly
Unknown
Mean anomaly
159.7733°
Eccentric anomaly
Unknown
Mean motion
3.57286 °/min
Orbital period
100.76 mins
BSTAR
0.000055653
Loading maneuver chart data...
Loading SW <> Apogee altitude chart data...
Loading historical data...
Loading historical data...
Loading historical data...
Loading historical data...
Loading historical data...
Loading historical data...
Loading historical data...
Other satellites on launch #31 in the year 1964 (1964-06-18 UTC)

THOR AGENA D R/B Visibility forecast

Observer location: undefined°, undefined°

Span
Click to sort rows by Start time (UTC) header in descending order
Start Az.
Max El. time (UTC)
Max El. Az.
Max El.
End time (UTC)
End Az.
7 mins2025-07-03 07:29:31.844Z346.08° N2025-07-03 07:33:31.844Z287.287° WNW23.943°2025-07-03 07:36:31.844Z245.953° WSW
8 mins2025-07-03 17:08:31.844Z147.803° SSE2025-07-03 17:12:31.844Z41.012° NE41.114°2025-07-03 17:16:31.844Z352.711° N
4 mins2025-07-03 18:50:31.844Z249.516° W2025-07-03 18:51:31.844Z262.179° W14.488°2025-07-03 18:54:31.844Z298.577° NW
6 mins2025-07-04 05:23:31.844Z57.447° ENE2025-07-04 05:26:31.844Z99.586° ESE19.242°2025-07-04 05:29:31.844Z138.233° SSE
|